This demonstration page uses our WeatherBlox Daily Observations layout. Learn more.

Left ArrowRight Arrow

31.84235, -102.49876

Hourly Observations for March 15, 2015

Temp ( °F °C ) Dew Point ( °F °C ) Humidity (%) Winds ( mph kmh ) Pressure ( in mb ) Visibility ( mi km ) Precip ( " mm )
12:53 am 00:53 Clear 43 6.1 29 -1.7 58 58 NNE 9 15 30.24 1024 10 16 0.00 0.00
1:53 am 01:53 Clear 42 5.6 28 -2.2 58 58 NE 9 15 30.24 1024 10 16 0.00 0.00
2:53 am 02:53 Clear 42 5.6 27 -2.8 55 55 NNE 9 15 30.23 1024 10 16 0.00 0.00
3:53 am 03:53 Clear 40 4.4 25 -3.9 55 55 NNE 10 17 30.24 1024 10 16 0.00 0.00
4:53 am 04:53 Clear 39 3.9 25 -3.9 57 57 NNE 9 15 30.23 1024 10 16 0.00 0.00
5:53 am 05:53 Clear 38 3.3 24 -4.4 57 57 NNE 9 15 30.24 1024 10 16 0.00 0.00
6:53 am 06:53 Clear 38 3.3 23 -5 55 55 NNE 10 17 30.25 1024 10 16 0.00 0.00
7:53 am 07:53 Clear 36 2.2 23 -5 59 59 NNE 10 17 30.26 1025 10 16 0.00 0.00
8:53 am 08:53 Sunny 42 5.6 24 -4.4 49 49 N 8 13 30.31 1026 10 16 0.00 0.00
9:53 am 09:53 Sunny 51 10.6 29 -1.7 43 43 N 5 7 30.32 1027 10 16 0.00 0.00
10:53 am 10:53 Sunny 58 14.4 28 -2.2 32 32 NE 5 7 30.32 1027 10 16 0.00 0.00
11:53 am 11:53 Sunny 61 16.1 28 -2.2 29 29 ENE 6 9 30.33 1027 10 16 0.00 0.00
12:53 pm 12:53 Sunny 63 17.2 26 -3.3 25 25 VRB 3 6 30.32 1027 10 16 0.00 0.00
1:53 pm 13:53 Sunny 65 18.3 25 -3.9 22 22 E 8 13 30.29 1026 10 16 0.00 0.00
2:53 pm 14:53 Sunny 67 19.4 23 -5 19 19 ENE 9 15 30.24 1024 10 16 0.00 0.00
3:53 pm 15:53 Sunny 67 19.4 23 -5 19 19 ESE 7 11 30.21 1023 10 16 0.00 0.00
4:53 pm 16:53 Sunny 66 18.9 21 -6.1 18 18 ESE 6 9 30.20 1023 10 16 0.00 0.00
5:53 pm 17:53 Sunny 67 19.4 22 -5.6 18 18 NE 5 7 30.19 1022 10 16 0.00 0.00
6:53 pm 18:53 Sunny 66 18.9 23 -5 19 19 E 7 11 30.20 1023 10 16 0.00 0.00
7:53 pm 19:53 Sunny 62 16.7 26 -3.3 25 25 ESE 7 11 30.23 1024 10 16 0.00 0.00
8:53 pm 20:53 Clear 59 15 26 -3.3 28 28 SE 8 13 30.24 1024 10 16 0.00 0.00
9:53 pm 21:53 Clear 57 13.9 25 -3.9 29 29 ESE 6 9 30.23 1024 10 16 0.00 0.00
10:53 pm 22:53 Clear 56 13.3 28 -2.2 34 34 SSE 9 15 30.24 1024 10 16 0.00 0.00
11:53 pm 23:53 Clear 56 13.3 28 -2.2 34 34 S 7 11 30.23 1024 10 16 0.00 0.00

Powered by AerisWeather